Location: Namasale
(1.5000°N, 32.6167°E)
Time: 23:51:59
(UTC+00:00)

Vanguard 3 - Pass Details

Date: 04 December 2021
Orbit: 508 x 3260 km, 33.3° (Epoch: 27 January)

Event Time Altitude Azimuth Distance (km) Brightness Sun altitude
Rises 18:09:50 0° 190° (S) 4,030 11.2 -34.9°
Reaches altitude 10° 18:16:12 10° 152° (SSE) 3,809 10.5 -36.3°
Maximum altitude 18:18:03 11° 142° (SE) 3,971 10.5 -36.8°
Enters shadow 18:18:40 11° 138° (SE) 4,045 10.5 -36.9°
